Location: Bakhuizen
(52.8696°N, 5.4575°E)
Time: 07:45:22
(UTC+00:00)

SeaSat 1 - Pass Details

Date: 11 May 2021
Orbit: 744 x 747 km, 108.0° (Epoch: 20 June)

Event Time Altitude Azimuth Distance (km) Brightness Sun altitude
Rises 23:00:56 0° 39° (NE) 3,202 6.4 -18.6°
Reaches altitude 10° 23:03:38 10° 54° (NE) 2,273 5.3 -18.7°
Maximum altitude 23:07:35 24° 107° (ESE) 1,533 3.8 -18.8°
Enters shadow 23:08:32 22° 124° (SE) 1,583 3.8 -18.8°
